Simultaneous Nadir Overpasses (SNOs) Predictions

Prediction of SNOs between AQUA and NOAA-19 Satellite Orbit:

Table of predicted SNOs for the next 14.0 days since TLE Epoch: 7/29/2015
Index Date (AQUA) Time (AQUA) Lat,Lon (AQUA) SZA (AQUA ) Date (NOAA-19) Time (NOAA-19) Lat,Lon (NOAA-19) SZA (NOAA-19 ) Distance(km) Time Diff (sec)
1 07/31/2015 13:54:32 -80.28, 118.53 116.21 07/31/2015 13:53:47 -80.28, 118.45 116.18 1.49 45
2 07/31/2015 14:43:56 80.19, -72.97 63.64 07/31/2015 14:44:41 80.19, -73.04 63.63 1.34 45
3 08/02/2015 19:28:16 80.25,-144.61 64.30 08/02/2015 19:28:02 80.25,-144.59 64.30 0.34 14
4 08/05/2015 00:12:36 80.31, 143.70 64.98 08/05/2015 00:11:23 80.30, 143.84 64.99 2.80 73
5 08/05/2015 01:01:59 -80.20, -47.61 115.21 08/05/2015 01:02:24 -80.20, -47.47 115.24 2.66 25
6 08/07/2015 05:46:19 -80.27,-119.31 114.50 08/07/2015 05:45:46 -80.27,-119.25 114.49 1.13 33
7 08/07/2015 06:35:43 80.18, 49.10 65.37 08/07/2015 06:36:39 80.18, 49.18 65.34 1.63 56
8 08/09/2015 11:20:03 80.26, -22.68 66.11 08/09/2015 11:20:01 80.27, -22.73 66.12 0.98 2
9 08/11/2015 16:04:22 80.31, -94.21 66.83 08/11/2015 16:03:22 80.32, -94.34 66.88 2.82 60




NCC Satellite Simultaneous Nadir Overpasses (SNOs) Prediction Service
